Location: Hains Lake
(37.8540°N, 99.8578°W)
Time: 22:06:36
(UTC+00:00)

Vanguard 2 Rocket - Pass Details

Date: 26 April 2021
Orbit: 553 x 3326 km, 32.9° (Epoch: 05 May)

Event Time Altitude Azimuth Distance (km) Brightness Sun altitude
Rises 21:28:04 0° 272° (W) 6,471 11.9 45.2°
Reaches altitude 10° 21:31:56 10° 270° (W) 5,712 11.9 44.5°
Maximum altitude 21:50:55 72° 191° (SSW) 3,432 10.7 40.9°
Drops below altitude 10° 22:09:46 10° 112° (ESE) 5,673 10.6 37.3°
Sets 22:13:36 0° 110° (ESE) 6,427 10.8 36.6°
